Home   Weather   Paterson   Past weeks

Flag for USA Past Weather in Paterson, New Jersey, USA — Yesterday and Last 2 Weeks

Now
41 °F

Mostly cloudy.


Feels Like: 32 °F
Forecast: 37 / 42 °F
Wind: 18 mph from East

Location: Essex County Airport

Current Time: Jan 23, 2017 at 2:02:49 pm

Latest Report: Jan 23, 2017 at 12:53 pm


Visibility: 10 mi

Pressure: 29.75 "Hg

Humidity: 62%

Dew Point: 29 °F

Location of PatersonLocation

Past Weather in Paterson — Graph

°F

Paterson Temperature Yesterday

Maximum temperature yesterday: 50 °F (at 4:53 pm)
Minimum temperature yesterday: 42 °F (at 7:38 am)
Average temperature yesterday: 45 °F

High & Low Weather Summary for the Past Weeks

 TemperatureHumidityPressure
High63 °F (Jan 12, 1:53 pm)100% (Jan 18, 3:31 am)30.78 "Hg (Jan 18, 3:31 am)
Low8 °F (Jan 9, 6:53 am)30% (Jan 8, 2:53 pm)29.70 "Hg (Jan 22, 1:53 pm)
Average37 °F77%30.19 "Hg
* Reported Jan 8 12:53 pm — Jan 23 12:53 pm, Paterson, Weather by CustomWeather, © 2017

Note: Actual official high and low records may vary slightly from our data, if they occured in-between our weather recording intervals... More about our weather records

Advertising

Paterson Weather History for the Previous 24 Hours

Scroll right to see more
 ConditionsComfort  
Time TempWeatherWind HumidityBarometerVisibility
12:53 pm
Mon, Jan 23
41 °FMostly cloudy.18 mph62%29.75 "Hg10 mi
11:53 am41 °FMostly cloudy.20 mph62%29.79 "Hg10 mi
10:53 am41 °FMostly cloudy.24 mph60%29.85 "Hg10 mi
9:53 am41 °FMostly cloudy.25 mph62%29.85 "Hg10 mi
9:17 am41 °FOvercast.14 mph67%29.84 "Hg10 mi
8:53 am41 °FMostly cloudy.18 mph67%29.85 "Hg10 mi
7:53 am41 °FMostly cloudy.20 mph74%29.85 "Hg10 mi
6:53 am42 °FOvercast.18 mph76%29.84 "Hg10 mi
5:53 am42 °FMostly cloudy.23 mph76%29.85 "Hg10 mi
4:53 am42 °FLight rain. Overcast.18 mph82%29.85 "Hg10 mi
3:53 am43 °FOvercast.16 mph79%29.84 "Hg10 mi
2:53 am44 °FOvercast.14 mph79%29.83 "Hg10 mi
1:53 am45 °FOvercast.20 mph76%29.86 "Hg10 mi
1:19 am45 °FMostly cloudy.18 mph80%29.83 "Hg10 mi
12:53 am45 °FOvercast.13 mph82%29.83 "Hg10 mi
11:53 pm
Sun, Jan 22
45 °FOvercast.14 mph82%29.84 "Hg10 mi
10:53 pm45 °FOvercast.17 mph82%29.83 "Hg10 mi
10:31 pm45 °FOvercast.20 mph82%29.81 "Hg10 mi
9:53 pm46 °FOvercast.24 mph79%29.82 "Hg10 mi
8:53 pm47 °FMostly cloudy.16 mph80%29.80 "Hg10 mi
7:53 pm49 °FOvercast.13 mph80%29.77 "Hg10 mi
6:53 pm49 °FOvercast.8 mph84%29.77 "Hg10 mi
6:44 pm49 °FMostly cloudy.7 mph84%29.75 "Hg9 mi
6:00 pm48 °FLight rain. Fog.6 mph89%29.74 "Hg6 mi
4:53 pm50 °FLow clouds.9 mph80%29.75 "Hg6 mi
3:53 pm49 °FFog.3 mph86%29.73 "Hg5 mi
2:53 pm49 °FFog.7 mph86%29.71 "Hg5 mi
Weather by CustomWeather, © 2017

See weather overviewHow to use our weather pages